Regional Weather Roundup
Issued by NWS

Home | Current Version | Previous Version | Graphics & Text | Print | Product List | Glossary On
Versions: 1 2 3 4 5 6 7 8 9 10 11 12 13 14 15 16 17 18 19 20 21 22 23 24 25 26 27 28 29 30 31 32 33 34 35 36 37 38 39 40 41 42 43 44 45 46 47 48 49 50
001
ASUS43 KTOP 271159
RWRKS

WEATHER ROUNDUP FOR KANSAS
NATIONAL WEATHER SERVICE GOODLAND KS
700 AM CDT FRI MAY 27 2016

NOTE:  "FAIR" INDICATES FEW OR NO CLOUDS BELOW 12,000 FEET WITH NO
SIGNIFICANT WEATHER AND/OR OBSTRUCTIONS TO VISIBILITY.

KSZ001>006-013>018-027>032-041>047-271300-
NORTHWEST KANSAS

CITY           SKY/WX    TMP DP  RH WIND       PRES   REMARKS
GOODLAND       CLOUDY    51  50  96 S3        29.75R
6HR MIN TEMP:  46; 6HR MAX TEMP:  51;

HAYS           CLOUDY    28 N/A N/A S5        29.68R
HILL CITY      CLOUDY    57  56  96 SE5       29.71R
6HR MIN TEMP:  57; 6HR MAX TEMP:  59;

RUSSELL        CLOUDY    57  56  96 S7        29.65R
6HR MIN TEMP:  56; 6HR MAX TEMP:  58;

$$

KSZ061>065-074>080-084>089-271300-
SOUTHWEST KANSAS

CITY           SKY/WX    TMP DP  RH WIND       PRES   REMARKS
DODGE CITY     CLOUDY    59  58  96 SE15      29.66S
6HR MIN TEMP:  57; 6HR MAX TEMP:  59;

ELKHART          N/A     48  39  71 W16         N/A
GARDEN CITY    CLOUDY    52  49  89 W7        29.68R
6HR MIN TEMP:  47; 6HR MAX TEMP:  55;

GREAT BEND     CLOUDY    59  52  77 SE14      29.68R
LIBERAL        PTCLDY    48  39  71 W15       29.71R
$$

KSZ066>073-081>083-090>101-271300-
SOUTHEAST KANSAS

CITY           SKY/WX    TMP DP  RH WIND       PRES   REMARKS
CHANUTE        PTCLDY    60  58  92 SE13G25   29.77R
6HR MIN TEMP:  59; 6HR MAX TEMP:  67; 6HR PCP:  0.75;

COFFEYVILLE    CLOUDY    63  59  87 E9        29.78R
6HR MIN TEMP:  62; 6HR MAX TEMP:  71; 6HR PCP:  0.01;

HUTCHINSON     PTCLDY    60  57  89 SE9       29.71R
6HR MIN TEMP:  59; 6HR MAX TEMP:  61; 6HR PCP: TRACE;

MEDICINE LODGE   N/A     60  57  89 SE10G21   29.69S
NEWTON         CLOUDY    57  54  88 SE17      29.73R
PARSONS        CLOUDY    62  60  93 SE7       29.80R
6HR MIN TEMP:  60; 6HR MAX TEMP:  72; 6HR PCP:  0.13;

WICHITA INTL   CLOUDY    60  57  89 SE13      29.71R
6HR MIN TEMP:  60; 6HR MAX TEMP:  62; 6HR PCP:  0.07;

WICHITA JABRA  MOCLDY    59  58  96 SE12      29.71R
6HR MIN TEMP:  57; 6HR MAX TEMP:  60; 6HR PCP:  0.06;

WINFIELD       CLOUDY    62  58  86 E10       29.75R
6HR MIN TEMP:  60; 6HR MAX TEMP:  63; 6HR PCP:  0.19;

$$

KSZ007>012-019>026-033>040-048>060-102>105-271300-
NORTHEAST KANSAS

CITY           SKY/WX    TMP DP  RH WIND       PRES   REMARKS
CONCORDIA      CLOUDY    55  54  96 CALM      29.70R
6HR MIN TEMP:  54; 6HR MAX TEMP:  60; 6HR PCP:  0.10;

EMPORIA        CLOUDY    59  57  93 S13       29.72R
6HR MIN TEMP:  57; 6HR MAX TEMP:  60; 6HR PCP:  0.30;

LAWRENCE       CLOUDY    61  60  97 E9G18     29.70S
6HR MIN TEMP:  59; 6HR MAX TEMP:  63; 6HR PCP:  0.85;

MANHATTAN      CLOUDY    62  57  83 CALM      29.68R
6HR MIN TEMP:  60; 6HR MAX TEMP:  62; 6HR PCP:  0.32;

OLATHE IND     CLOUDY    61  60  97 E7        29.72R
6HR MIN TEMP:  59; 6HR MAX TEMP:  63; 6HR PCP:  0.45;

OLATHE EXE     CLOUDY    61  60  97 NE5       29.72R
6HR MIN TEMP:  59; 6HR MAX TEMP:  62; 6HR PCP:  0.33;

SALINA         CLOUDY    59  57  93 SE3       29.68R
6HR MIN TEMP:  58; 6HR MAX TEMP:  63; 6HR PCP:  0.08;

TOPEKA BILLARD CLOUDY    62  58  86 E8        29.68R
6HR MIN TEMP:  59; 6HR MAX TEMP:  64; 6HR PCP:  0.79;

TOPEKA FORBES  CLOUDY    61  58  90 SE9       29.68R
6HR MIN TEMP:  59; 6HR MAX TEMP:  65; 6HR PCP:  0.94;

$$




USA.gov is the U.S. government's official web portal to all federal, state and local government web resources and services.